This is the latest recevied weather packets stored in our database for station/object KD7AWQ. If no packets are shown the sender has not sent any weather packets the latest 10 day(s).
| Time | Temp. | Humidity | Pressure | Rain* | Wind** | Luminosity | Snow |
|---|---|---|---|---|---|---|---|
| 1788193445 | 21.67° C | 68% | 1190.6 hPa | 0 mm | - | 423 W/m² | - |
| 1788193143 | 21.67° C | 67% | 1190.9 hPa | 0 mm | - | 357 W/m² | - |
| 1788192840 | 22.22° C | 67% | 1190.9 hPa | 0 mm | - | 414 W/m² | - |
| 1788192535 | 21.67° C | 68% | 1190.7 hPa | 0 mm | - | 582 W/m² | - |
| 1788192230 | 21.11° C | 68% | 1191.2 hPa | 0 mm | - | 370 W/m² | - |
| 1788191925 | 21.11° C | 71% | 1191 hPa | 0 mm | - | 254 W/m² | - |
| 1788191624 | 21.11° C | 72% | 1190.8 hPa | 0 mm | - | 190 W/m² | - |
| 1788191320 | 21.11° C | 71% | 1190.9 hPa | 0 mm | - | 202 W/m² | - |
| 1788191017 | 21.11° C | 75% | 1190.9 hPa | 0 mm | - | 187 W/m² | - |
| 1788190715 | 21.11° C | 73% | 1190.6 hPa | 0 mm | - | 187 W/m² | - |
| 1788190411 | 21.11° C | 75% | 1191 hPa | 0 mm | - | 198 W/m² | - |
| 1788190107 | 21.11° C | 76% | 1190.8 hPa | 0 mm | - | 192 W/m² | - |
| 1788189803 | 20.56° C | 79% | 1190.7 hPa | 0 mm | - | 195 W/m² | - |
| 1788189511 | 20.56° C | 78% | 1190.7 hPa | 0 mm | - | 147 W/m² | - |
| 1788189196 | 20° C | 85% | 1190.7 hPa | 0 mm | - | 140 W/m² | - |
| 1788188892 | 20° C | 85% | 1190.5 hPa | 0 mm | - | 106 W/m² | - |
| 1788188588 | 20° C | 84% | 1190.6 hPa | 0 mm | - | 74 W/m² | - |
| 1788188286 | 20° C | 83% | 1190.6 hPa | 0 mm | - | 66 W/m² | - |
| 1788187983 | 20.56° C | 81% | 1190.4 hPa | 0 mm | - | 55 W/m² | - |
| 1788187678 | 20.56° C | 79% | 1190.4 hPa | 0 mm | - | 45 W/m² | - |
| 1788187375 | 21.11° C | 77% | 1190.4 hPa | 0 mm | - | 39 W/m² | - |
| 1788187074 | 21.11° C | 74% | 1190.8 hPa | 0 mm | - | 35 W/m² | - |
| 1788186769 | 20.56° C | 75% | 1190.4 hPa | 0 mm | - | 33 W/m² | - |
| 1788186465 | 20.56° C | 75% | 1190.5 hPa | 0 mm | - | 35 W/m² | - |
| 1788186160 | 20.56° C | 74% | 1190.3 hPa | 0 mm | - | 29 W/m² | - |
* Rain latest hour (hover to see other rain measurements)
** Current wind speed in m/s (hover to see current wind gust speed)